Location: Budapest
(47.4979°N, 19.0402°E)
Time: 22:01:38
(UTC+01:00)

ISS - Visible Passes

Search period start: 10 December 2018 00:00
Search period end: 20 December 2018 00:00
Orbit: 401 x 408 km, 51.6° (Epoch: 10 December)

Date Brightness Start Highest point End Pass type
(mag) Time Alt. Az. Time Alt. Az. Time Alt. Az.
10 Dec -3.3 17:31:15 10° WNW 17:34:28 58° SSW 17:36:18 23° SE visible
11 Dec -3.9 16:39:03 10° WNW 16:42:19 89° N 16:45:35 10° ESE visible
11 Dec -1.2 18:16:11 10° W 18:18:26 18° SW 18:19:44 14° SSW visible
12 Dec -1.8 17:23:33 10° W 17:26:26 29° SW 17:29:19 10° SSE visible
13 Dec -2.8 16:31:11 10° WNW 16:34:21 48° SSW 16:37:30 10° SE visible
14 Dec -0.7 17:16:20 10° W 17:18:14 15° SW 17:20:07 10° S visible
15 Dec -1.1 16:23:30 10° W 16:26:13 24° SW 16:28:54 10° SSE visible
